| time (UTC) | temp C | wind direction | speed KPH | gust KPH | rain 1hr cm | rain 24hr cm | rain mn cm | humidity % | barometer mb |
| 20260503050013 | 3 | 125 | 0.0 | 0.0 | 0.00 | 0.00 | 0.00 | 1 | 1012.4 |
| 20260503044512 | 2 | 262 | 0.0 | 0.0 | 0.00 | 0.00 | 0.00 | 1 | 1012.5 |
| 20260503043005 | 2 | 262 | 0.0 | 0.0 | 0.00 | 0.00 | 0.00 | 1 | 1012.6 |
| 20260503041606 | 2 | 262 | 0.0 | 0.0 | 0.00 | 0.00 | 0.00 | 1 | 1012.8 |
| 20260503040054 | 2 | 262 | 0.0 | 0.0 | 0.00 | 0.00 | 0.00 | 1 | 1012.8 |
| 20260503034550 | 2 | 262 | 0.0 | 0.0 | 0.00 | 0.00 | 0.00 | 1 | 1012.8 |
| 20260503033047 | 1 | 262 | 0.0 | 0.0 | 0.00 | 0.00 | 0.00 | 1 | 1012.9 |
| 20260503031541 | 1 | 262 | 0.0 | 0.0 | 0.00 | 0.00 | 0.00 | 1 | 1012.9 |
| 20260503030036 | 1 | 262 | 0.0 | 0.0 | 0.00 | 0.00 | 0.00 | 1 | 1012.9 |
| 20260503024533 | 1 | 262 | 0.0 | 0.0 | 0.00 | 0.00 | 0.00 | 1 | 1013.0 |
| 20260503023029 | 1 | 262 | 0.0 | 0.0 | 0.00 | 0.00 | 0.00 | 1 | 1013.0 |
| 20260503021524 | 1 | 262 | 0.0 | 0.0 | 0.00 | 0.00 | 0.00 | 1 | 1013.1 |
| 20260503020020 | 1 | 262 | 0.0 | 0.0 | 0.00 | 0.00 | 0.00 | 2 | 1013.2 |
| 20260503014516 | 2 | 262 | 0.0 | 0.0 | 0.00 | 0.00 | 0.00 | 9 | 1013.1 |
| 20260503013013 | 2 | 262 | 0.0 | 0.0 | 0.00 | 0.00 | 0.00 | 16 | 1013.2 |
| 20260503011506 | 2 | 262 | 0.0 | 0.0 | 0.00 | 0.00 | 0.00 | 25 | 1013.1 |
| 20260503010002 | 3 | 262 | 0.0 | 0.0 | 0.00 | 0.00 | 0.00 | 34 | 1013.0 |
| 20260503004558 | 3 | 262 | 0.0 | 0.0 | 0.00 | 0.00 | 0.00 | 43 | 1012.8 |
| 20260503003054 | 4 | 262 | 0.0 | 0.0 | 0.00 | 0.00 | 0.00 | 54 | 1012.8 |
| 20260503001549 | 5 | 262 | 0.0 | 0.0 | 0.00 | 0.00 | 0.00 | 57 | 1012.7 |
| 20260503000100 | 5 | 262 | 0.0 | 0.0 | 0.00 | 0.00 | 0.00 | 59 | 1012.6 |
| 20260502234543 | 6 | 316 | 0.0 | 0.0 | 0.00 | 0.00 | 0.00 | 58 | 1012.5 |
| 20260502233035 | 6 | 307 | 0.0 | 3.2 | 0.00 | 0.00 | 0.00 | 58 | 1012.4 |
| 20260502231535 | 6 | 69 | 0.0 | 1.6 | 0.00 | 0.00 | 0.00 | 58 | 1012.3 |
| 20260502230027 | 6 | 267 | 0.0 | 3.2 | 0.00 | 0.00 | 0.00 | 56 | 1012.4 |
| 20260502224522 | 6 | 272 | 0.0 | 1.6 | 0.00 | 0.00 | 0.00 | 54 | 1012.3 |
| 20260502223027 | 7 | 326 | 0.0 | 3.2 | 0.00 | 0.00 | 0.00 | 56 | 1012.2 |
| 20260502221513 | 7 | 313 | 0.0 | 14.5 | 0.00 | 0.00 | 0.00 | 55 | 1012.2 |
| 20260502220011 | 7 | 70 | 0.0 | 0.0 | 0.00 | 0.00 | 0.00 | 56 | 1012.1 |
| 20260502214506 | 7 | 330 | 0.0 | 11.3 | 0.00 | 0.00 | 0.00 | 55 | 1012.0 |
| 20260502213002 | 7 | 297 | 0.0 | 8.0 | 0.00 | 0.00 | 0.00 | 54 | 1012.1 |
| 20260502211559 | 7 | 311 | 0.0 | 4.8 | 0.00 | 0.00 | 0.00 | 53 | 1011.9 |
| 20260502210111 | 7 | 315 | 0.0 | 1.6 | 0.00 | 0.00 | 0.00 | 52 | 1011.9 |
| 20260502204550 | 8 | 301 | 0.0 | 0.0 | 0.00 | 0.00 | 0.00 | 54 | 1011.9 |
| 20260502203045 | 7 | 307 | 0.0 | 0.0 | 0.00 | 0.00 | 0.00 | 54 | 1011.9 |
| 20260502201546 | 7 | 345 | 0.0 | 1.6 | 0.00 | 0.00 | 0.00 | 55 | 1012.0 |
| 20260502200043 | 7 | 230 | 0.0 | 0.0 | 0.00 | 0.00 | 0.00 | 54 | 1012.1 |
| 20260502194536 | 7 | 293 | 0.0 | 0.0 | 0.00 | 0.00 | 0.00 | 55 | 1012.2 |
| 20260502193028 | 7 | 49 | 0.0 | 0.0 | 0.00 | 0.00 | 0.00 | 57 | 1012.3 |
| 20260502191525 | 7 | 40 | 0.0 | 8.0 | 0.00 | 0.00 | 0.00 | 56 | 1012.4 |
| 20260502190027 | 7 | 50 | 0.0 | 3.2 | 0.00 | 0.00 | 0.00 | 57 | 1012.4 |
| 20260502184515 | 7 | 316 | 0.0 | 0.0 | 0.00 | 0.00 | 0.00 | 55 | 1012.3 |
| 20260502183010 | 8 | 307 | 0.0 | 0.0 | 0.00 | 0.00 | 0.00 | 52 | 1012.3 |
| 20260502181507 | 8 | 272 | 0.0 | 3.2 | 0.00 | 0.00 | 0.00 | 50 | 1012.2 |
| 20260502163045 | 7 | 283 | 0.0 | 3.2 | 0.00 | 0.00 | 0.00 | 50 | 1012.4 |
| 20260502161530 | 8 | 347 | 0.0 | 3.2 | 0.00 | 0.00 | 0.00 | 48 | 1012.4 |
| 20260502151532 | 7 | 331 | 0.0 | 9.7 | 0.00 | 0.00 | 0.00 | 55 | 1012.7 |
| 20260502140123 | 6 | 301 | 0.0 | 1.6 | 0.00 | 0.00 | 0.00 | 54 | 1013.1 |
| 20260502123029 | 5 | 256 | 0.0 | 0.0 | 0.00 | 0.00 | 0.00 | 18 | 1013.3 |
| 20260502121520 | 4 | 314 | 0.0 | 0.0 | 0.00 | 0.00 | 0.00 | 7 | 1013.3 |
| 20260502114510 | 5 | 344 | 0.0 | 4.8 | 0.00 | 0.00 | 0.00 | 2 | 1013.2 |
| 20260502113005 | 5 | 312 | 0.0 | 3.2 | 0.00 | 0.00 | 0.00 | 1 | 1013.2 |
| 20260502111502 | 4 | 308 | 0.0 | 0.0 | 0.00 | 0.00 | 0.00 | 1 | 1012.9 |
| 20260502104553 | 4 | 68 | 0.0 | 0.0 | 0.00 | 0.00 | 0.00 | 1 | 1012.5 |
| 20260502103054 | 3 | 241 | 0.0 | 0.0 | 0.00 | 0.00 | 0.00 | 1 | 1012.5 |
| 20260502101556 | 3 | 271 | 0.0 | 0.0 | 0.00 | 0.00 | 0.00 | 1 | 1012.3 |
| 20260502091528 | 3 | 106 | 0.0 | 0.0 | 0.00 | 0.00 | 0.00 | 1 | 1011.7 |
| 20260502070104 | 3 | 72 | 0.0 | 0.0 | 0.00 | 0.00 | 0.00 | 1 | 1011.5 |
| 20260502064557 | 3 | 258 | 0.0 | 0.0 | 0.00 | 0.00 | 0.00 | 1 | 1011.3 |
| 20260502063049 | 3 | 258 | 0.0 | 0.0 | 0.00 | 0.00 | 0.00 | 1 | 1011.2 |
| 20260502061535 | 4 | 258 | 0.0 | 0.0 | 0.00 | 0.00 | 0.00 | 1 | 1011.0 |
| 20260502060031 | 4 | 258 | 0.0 | 0.0 | 0.00 | 0.00 | 0.00 | 1 | 1011.2 |
| 20260502054533 | 4 | 258 | 0.0 | 0.0 | 0.00 | 0.00 | 0.00 | 1 | 1011.6 |
| 20260502053023 | 4 | 258 | 0.0 | 0.0 | 0.00 | 0.00 | 0.00 | 1 | 1011.7 |